Regional Weather Roundup
Issued by NWS

Home | Current Version | Previous Version | Graphics & Text | Print | Product List | Glossary On
Versions: 1 2 3 4 5 6 7 8 9 10 11 12 13 14 15 16 17 18 19 20 21 22 23 24 25 26 27 28 29 30 31 32 33 34 35 36 37 38 39 40 41 42 43 44 45 46 47 48 49 50
000
ASUS43 KLOT 010221
RWRIL

ILLINOIS REGIONAL WEATHER ROUNDUP
NATIONAL WEATHER SERVICE CHICAGO/ROMEOVILLE IL
900 PM CDT MON AUG 31 2015

NOTE: "FAIR" INDICATES FEW OR NO CLOUDS BELOW 12,000 FEET WITH NO
SIGNIFICANT WEATHER AND/OR OBSTRUCTIONS TO VISIBILITY.

* THESE STATIONS ARE NOT UNDER NWS QUALITY CONTROL. THEY ALSO MAY NOT
  REPORT WEATHER SUCH AS PRECIPITATION OR FOG.

ILZ001-002-007-009-015-016-024-010300-
NORTHWEST ILLINOIS

CITY           SKY/WX    TMP DP  RH WIND       PRES   REMARKS
MOLINE         CLEAR     76  72  87 CALM      29.98R
STERLING*      CLEAR     73  72  94 SE5       29.99S
SAVANNA*       CLEAR     75  70  84 SE3       29.99S
$$

ILZ003-004-008-010-011-017-018-010300-
NORTH CENTRAL ILLINOIS

CITY           SKY/WX    TMP DP  RH WIND       PRES   REMARKS
ROCKFORD       CLEAR     75  70  84 SE3       30.03R
FREEPORT*      CLEAR     69  68  94 SE5       30.03R
ROCHELLE*      CLEAR     71  69  93 SE5       30.03R
DE KALB*       CLEAR     72  69  91 S3        30.04S
PERU*          CLEAR     78  70  76 S8        30.03R HX  80
$$

ILZ005-006-012>014-019>023-010300-
NORTHEAST ILLINOIS

CITY           SKY/WX    TMP DP  RH WIND       PRES   REMARKS
CHICAGO-OHARE  CLEAR     75  68  78 E3        30.03R
CHICAGO-MIDWAY CLEAR     79  68  69 E5        30.03R HX  81
AURORA         CLEAR     72  69  90 CALM      30.03R FOG
LANSING*       CLEAR     74  69  85 CALM      30.04R
JOLIET*        CLEAR     73  71  92 CALM      30.03R
WAUKEGAN       CLEAR     69  67  93 SE3       30.03R
DUPAGE AIRPORT CLEAR     72  68  87 CALM      30.03R
KANKAKEE*      CLEAR     73  70  91 CALM      30.05R
WHEELING       CLEAR     72  66  81 E3        30.04R
MORRIS*        CLEAR     76  70  82 S3        30.02R
ROMEOVILLE*    CLEAR     74  66  76 S5        30.04R
NORTHERLY ISL    N/A     71  67  87 CALM        N/A
$$

LMZ740>746-010300-
SOUTHERN LAKE MICHIGAN

STATION/POSITION SKY/WX   TEMP    WIND        PRES    VSBY  WAVE
                          AIR SEA DIR/SP/G                  HT/PER
                          (F)     (DEG/KT/KT) (MB)    (MI)  (FT/S)
SOUTHERN BUOY              70 70  130/  6/  6   N/A
WILMETTE HARBOR            67 61  240/  2/  2   N/A           0
HARRISON CRIB              72     170/  4/  4   N/A
BURNHAM HARBOR             71        CALM       N/A
CALUMET HARBOR             73     100/  3/  5   N/A
BURNS HARBOR               78     110/  7/  9 1017.3R
MICHIGAN CITY              76     120/  5/  5   N/A
MICHIGAN CITY 6N           74 72  130/  4/  6   N/A           0
ST. JOSEPH                 75 73  170/  6/  6   N/A           0
$$

ILZ025>027-034>036-040-047-049-050-058-095>099-010300-
WEST-CENTRAL ILLINOIS

CITY           SKY/WX    TMP DP  RH WIND       PRES   REMARKS
QUINCY         CLEAR     78  73  84 SE6       30.00R HX  81
GALESBURG*     CLEAR     78  71  80 SE3       30.00R
MACOMB*        CLEAR     75  70  84 S3        30.03R
JACKSONVILLE*  CLEAR     82  74  77 S6        30.02R HX  87
PITTSFIELD*    CLEAR     79  73  81 S5        30.03R HX  82
$$

ILZ028>032-037-038-041>044-048-051>054-059>061-010300-
CENTRAL ILLINOIS

CITY           SKY/WX    TMP DP  RH WIND       PRES   REMARKS
PONTIAC        PTCLDY    73  72  95 SE6       30.05R
BLOOMINGTON    CLEAR     77  72  84 S8        30.06R
DECATUR        CLEAR     77  71  82 SE5       30.06R
PEORIA         CLEAR     81  70  69 E3        30.02R HX  84
LACON*         CLEAR     77  71  82 SE7       30.01R
LINCOLN*       MOCLDY    78  70  76 S6        30.03R HX  80
SPRINGFIELD    CLEAR     80  72  76 S8        30.03R HX  84
TAYLORVILLE    CLEAR     75  72  88 SE6       30.05R
$$

ILZ033-039-045-046-055>057-062-063-010300-
EAST-CENTRAL ILLINOIS

CITY           SKY/WX    TMP DP  RH WIND       PRES   REMARKS
CHAMPAIGN      CLEAR     73  69  87 S5        30.07R
RANTOUL*       CLEAR     76  71  85 S5        30.06R
MATTOON        HAZE      76  69  79 S6        30.06R VSB 1/2
PARIS*         CLEAR     72  69  90 CALM      30.08R
$$

ILZ079-100>102-010300-
SOUTHWEST ILLINOIS

CITY           SKY/WX    TMP DP  RH WIND       PRES   REMARKS
ALTON          CLEAR     73  70  88 SE6       30.04R
BELLEVILLE     CLEAR     78  75  92 E5        30.03R
CAHOKIA*       CLEAR     78  73  84 SE3       30.03R HX  81
SPARTA*        CLEAR     77  72  83 S6        30.06R
$$

ILZ064>066-069>071-074>076-080>082-084>086-088>090-092>094-010300-
SOUTH-CENTRAL ILLINOIS

CITY           SKY/WX    TMP DP  RH WIND       PRES   REMARKS
CARBONDALE     CLEAR     74  69  85 SE3       30.06R
CAIRO*         CLEAR     72  72 100 CALM      30.07R
EFFINGHAM*     CLEAR     73  70  89 SE3       30.08R
MARION         CLEAR     77  72  83 CALM      30.07R
MT. VERNON     MOCLDY    73  64  73 CALM      30.08R
SALEM*         CLEAR     79  70  73 CALM      30.06R HX  82
METROPOLIS*    CLEAR     72  71  95 CALM      30.08R
$$

ILZ067-068-072-073-078-083-087-091-010300-
SOUTHEAST ILLINOIS

CITY           SKY/WX    TMP DP  RH WIND       PRES   REMARKS
LAWRENCEVILLE  CLEAR     73  68  84 S6        30.07R
FLORA*         CLEAR     73  67  83 S3        30.07R
FAIRFIELD*     CLEAR     74  70  87 CALM      30.06R
HARRISBURG*    CLEAR     74  70  86 CALM      30.07R
ROBINSON*      CLEAR     70  67  90 S3        30.08R
CARMI*         CLEAR     70  69  95 S3        30.07R
$$

ABBREVIATIONS USED IN REMARKS
   TC - TEMPERATURE IN CELSIUS
  WCI - WIND CHILL INDEX
   HX - HEAT INDEX
  VSB - VISIBILITY
$$



USA.gov is the U.S. government's official web portal to all federal, state and local government web resources and services.